SB KEPS @ AMSAT $ORB06320.N 2Line Orbital Elements 06320.AMSAT
HR AMSAT ORBITAL ELEMENTS FOR AMATEUR SATELLITES IN NASA FORMAT FROM WA5QGD FORT WORTH,TX November 16, 2006 Send SUBSCRIBE KEPS/UNSUBSCRIBE KEPS to majordomo@amsat.org only BID: ORB06320.N
DECODE 2-LINE ELSETS WITH THE FOLLOWING KEY: 1 AAAAAU 00 0 0 BBBBB.BBBBBBBB .CCCCCCCC 00000-0 00000-0 0 DDDZ 2 AAAAA EEE.EEEE FFF.FFFF GGGGGGG HHH.HHHH III.IIII JJ.JJJJJJJJKKKKKZ KEY: A-CATALOGNUM B-EPOCHTIME C-DECAY D-ELSETNUM E-INCLINATION F-RAAN G-ECCENTRICITY H-ARGPERIGEE I-MNANOM J-MNMOTION K-ORBITNUM Z-CHECKSUM
TO ALL RADIO AMATEURS BT
AO-07 1 07530U 74089B 06320.53708311 -.00000028 00000-0 10000-3 0 7300 2 07530 101.5483 359.5498 0011894 310.2334 049.7698 12.53571810464472 UO-11 1 14781U 84021B 06319.61487428 .00000405 00000-0 61479-4 0 2268 2 14781 098.2049 333.0378 0009751 133.8795 226.3253 14.79484603218156 RS-10/11 1 18129U 87054A 06319.78771684 .00000006 00000-0 -98083-5 0 01589 2 18129 082.9273 216.0087 0012970 037.1601 323.0444 13.72780623971955 RS-15 1 23439U 94085A 06319.59024964 -.00000039 00000-0 10597-3 0 09959 2 23439 064.8220 352.3599 0165562 228.0771 130.5937 11.27551785489611 FO-29 1 24278U 96046B 06319.92215128 .00000079 00000-0 11972-3 0 03743 2 24278 098.5220 303.5326 0349916 276.2472 079.8925 13.52925375506064 SO-33 1 25509U 98061B 06319.57538123 .00000287 00000-0 46196-4 0 07937 2 25509 031.4357 353.4382 0355228 359.9120 000.1404 14.28137636420699 VO-52 1 28650U 05017B 06319.78371357 .00000635 00000-0 87856-4 0 04823 2 28650 097.8576 030.0091 0026478 226.8295 133.0695 14.81209655082827 AO-16 1 20439U 90005D 06320.57063256 .00000025 00000-0 24341-4 0 8957 2 20439 098.1897 321.9648 0011849 098.4971 261.7555 14.31739686878121 LO-19 1 20442U 90005G 06319.94610932 .00000016 00000-0 20805-4 0 08297 2 20442 098.1853 330.8941 0012923 100.6118 259.6521 14.31981638878175 AO-27 1 22825U 93061C 06319.80941378 .00000092 00000-0 52282-4 0 5458 2 22825 098.3027 294.3415 0008131 167.2124 192.9253 14.29190131685016 IO-26 1 22826U 93061D 06319.54335998 .00000035 00000-0 29902-4 0 2373 2 22826 098.2968 295.2446 0008798 166.1355 194.0068 14.29434393685059 PO-28 1 22829U 93061G 06320.51315564 .00000079 00000-0 46238-4 0 5228 2 22829 098.2867 297.3624 0010299 138.8242 221.3706 14.30131625685418 GO-32 1 25397U 98043D 06319.70462057 -.00000119 00000-0 -34249-4 0 01597 2 25397 098.4473 010.9015 0001966 114.6742 245.4652 14.23113815433799 MO-46 1 26548U 00057D 06320.44308142 .00000201 00000-0 42681-4 0 6483 2 26548 064.5551 120.7882 0038410 225.6547 134.1450 14.83048369331986 NO-44 1 26931U 01043C 06319.55021399 .00000070 00000-0 59670-4 0 04513 2 26931 067.0541 337.7984 0004983 262.8054 097.2482 14.29460876267563 SO-50 1 27607U 02058C 06319.68559348 .00000123 00000-0 41468-4 0 1719 2 27607 064.5599 013.2054 0034976 080.4888 280.0165 14.71194422209718 CO-55 1 27844U 03031E 06319.60767501 .00000089 00000-0 61862-4 0 8941 2 27844 098.7212 325.8280 0010139 352.0233 008.0787 14.20470277175159 CO-57 1 27848U 03031J 06320.58767834 .00000042 00000-0 40261-4 0 8593 2 27848 098.7199 326.0736 0009804 352.5088 007.5931 14.20295282175275 AO-51 1 28375U 04025K 06320.67917711 .00000040 00000-0 24681-4 0 6778 2 28375 098.1441 005.6068 0084692 105.6194 255.4365 14.40541909125111 CO-56 1 28941U 06005C 06320.86617260 .00020019 25748-5 24159-3 0 2611 2 28941 098.1614 354.4580 0257976 299.9661 057.6206 15.30648655 40858 HO-59 1 29484U 06041F 06320.52604999 .00038457 29246-5 34591-3 0 691 2 29484 098.3165 335.4872 0265772 299.5418 057.9398 15.34895764 8281 NOAA-10 1 16969U 86073A 06319.63477841 .00000089 00000-0 54428-4 0 04252 2 16969 098.7577 331.5789 0013203 070.2441 290.0161 14.27309166048762 NOAA-11 1 19531U 88089A 06319.84285361 -.00000086 00000-0 -21624-4 0 03795 2 19531 098.8224 046.5860 0011000 278.9558 081.0349 14.14825298935982 NOAA-12 1 21263U 91032A 06319.92740139 .00000085 00000-0 54774-4 0 08749 2 21263 098.7424 312.6633 0013023 010.5269 349.6172 14.25514869805860 MET-3/5 1 21655U 91056A 06319.92564393 .00000051 00000-0 10000-3 0 01936 2 21655 082.5548 153.6155 0013991 024.9991 335.1805 13.17008524733331 MET-2/21 1 22782U 93055A 06320.25635787 .00000035 00000-0 17751-4 0 6706 2 22782 082.5496 210.8124 0023675 111.8558 248.5128 13.83610778667077 OKEAN-4 1 23317U 94066A 06319.68861402 .00000487 00000-0 57715-4 0 01074 2 23317 082.5371 135.7091 0020877 234.1938 125.7306 14.82424504652421 NOAA-14 1 23455U 94089A 06319.76188233 -.00000216 00000-0 -90398-4 0 03725 2 23455 099.0197 019.5110 0009169 347.7254 012.3678 14.13676717612481 SICH-1 1 23657U 95046A 06320.73131105 .00000406 00000-0 48775-4 0 9095 2 23657 082.5270 275.6224 0022726 219.1326 140.8256 14.81415018604571 NOAA-15 1 25338U 98030A 06319.94229453 .00000095 00000-0 59204-4 0 07499 2 25338 098.5237 317.7576 0009855 294.1764 065.8379 14.24611328442328 RESURS 1 25394U 98043A 06320.74700524 .00000027 00000-0 30030-4 0 5048 2 25394 098.4728 018.3392 0002354 085.0337 275.1110 14.24117757434118 FENGYUN1 1 25730U 99025A 06319.57218437 -.00000138 00000-0 -52696-4 0 08768 2 25730 098.6412 306.4924 0015351 069.2623 291.0174 14.11817871387371 OKEAN-0 1 25860U 99039A 06319.58718392 .00000126 00000-0 26630-4 0 09049 2 25860 097.7313 326.8563 0001456 039.8908 320.2404 14.73404228394049 NOAA-16 1 26536U 00055A 06319.96077227 .00000282 00000-0 17777-3 0 01379 2 26536 099.0885 288.5195 0011191 054.8500 305.3695 14.12384465317006 NOAA-17 1 27453U 02032A 06319.75250313 .00000062 00000-0 45915-4 0 01575 2 27453 098.6076 028.9073 0011593 359.2683 000.8491 14.23826728228347 NOAA-18 1 28654U 05018A 06319.74590616 .00000413 00000-0 25371-3 0 07195 2 28654 098.8039 259.8787 0014410 149.6448 210.5538 14.11010969076757 HUBBLE 1 20580U 90037B 06319.85527371 .00000525 00000-0 28052-4 0 7408 2 20580 028.4670 141.1289 0003352 352.8930 007.1608 15.00131995707890 UARS 1 21701U 91063B 06319.96581420 .00008016 00000-0 14227-3 0 09246 2 21701 056.9734 157.4861 0104449 139.0032 221.8931 15.45418685832757 PO-34 1 25520U 98064B 06320.73592730 .00000773 00000-0 28524-4 0 6111 2 25520 028.4584 090.4966 0005800 099.6143 260.5105 15.16843754445237 ISS 1 25544U 98067A 06321.02001354 .00017075 00000-0 10115-3 0 753 2 25544 051.6316 119.7405 0011326 223.4017 236.1840 15.78132444457271 OO-38 1 26063U 00004C 06319.51339414 .00000025 00000-0 28682-4 0 07681 2 26063 100.2053 277.8896 0037185 041.4777 318.9212 14.35784689356398 NO-45 1 26932U 01043D 06318.57708341 -.00000009 00000-0 28802-4 0 04633 2 26932 067.0538 340.0342 0004514 238.8105 121.2553 14.29540426267461 UWE-1 1 28892U 05043C 06319.71982713 .00000269 00000-0 66385-4 0 06062 2 28892 098.1475 215.3414 0018564 059.5711 300.7326 14.59422296056070 CO-58 1 28895U 05043F 06319.70569515 .00000259 00000-0 64329-4 0 05878 2 28895 098.1501 215.4612 0018976 059.2354 301.0726 14.59472190055953 NCUBE2 1 28897U 05043H 06319.18692663 .00000268 00000-0 65865-4 0 01460 2 28897 098.1473 214.9238 0018387 061.9029 298.4021 14.59629107048159 /EX
participants (1)
-
Ray Hoad